Time,TemperatureF,DewpointF,PressureIn,WindDirection,WindDirectionDegrees,WindSpeedMPH,WindSpeedGustMPH,Humidity,HourlyPrecipIn,Conditions,Clouds,dailyrainin,SoftwareType,DateUTC
2014-01-26 00:13:00,53.3,15.0,30.23,SW,231,0.0,0.0,22,0.00,,,0.00,weatherlink.com 1.10,2014-01-26 08:13:00,
2014-01-26 00:28:00,53.3,15.0,30.22,SW,231,0.0,0.0,22,0.00,,,0.00,weatherlink.com 1.10,2014-01-26 08:28:00,
2014-01-26 00:43:00,53.4,14.0,30.22,WSW,250,2.0,2.0,21,0.00,,,0.00,weatherlink.com 1.10,2014-01-26 08:43:00,
2014-01-26 00:58:00,52.9,15.0,30.22,SW,222,2.0,4.0,22,0.00,,,0.00,weatherlink.com 1.10,2014-01-26 08:58:00,
2014-01-26 01:13:00,52.2,15.0,30.21,SW,229,5.0,7.0,23,0.00,,,0.00,weatherlink.com 1.10,2014-01-26 09:13:00,
2014-01-26 01:28:00,52.4,17.0,30.21,WSW,244,4.0,9.0,25,0.00,,,0.00,weatherlink.com 1.10,2014-01-26 09:28:00,
2014-01-26 01:43:00,53.7,20.0,30.21,West,265,5.0,8.0,27,0.00,,,0.00,weatherlink.com 1.10,2014-01-26 09:43:00,
2014-01-26 01:58:00,52.8,21.0,30.20,WSW,257,1.0,8.0,29,0.00,,,0.00,weatherlink.com 1.10,2014-01-26 09:58:00,
2014-01-26 02:13:00,52.8,22.0,30.20,WSW,258,1.0,2.0,30,0.00,,,0.00,weatherlink.com 1.10,2014-01-26 10:13:00,
2014-01-26 02:28:00,53.6,22.0,30.20,WSW,251,1.0,3.0,29,0.00,,,0.00,weatherlink.com 1.10,2014-01-26 10:28:00,
2014-01-26 02:43:00,53.0,21.0,30.20,SW,232,2.0,3.0,29,0.00,,,0.00,weatherlink.com 1.10,2014-01-26 10:43:00,
2014-01-26 02:58:00,53.1,21.0,30.20,WSW,237,1.0,3.0,29,0.00,,,0.00,weatherlink.com 1.10,2014-01-26 10:58:00,
2014-01-26 03:13:00,53.1,21.0,30.20,WSW,257,0.0,3.0,29,0.00,,,0.00,weatherlink.com 1.10,2014-01-26 11:13:00,
2014-01-26 03:28:00,52.8,21.0,30.20,WSW,252,0.0,3.0,29,0.00,,,0.00,weatherlink.com 1.10,2014-01-26 11:28:00,
2014-01-26 03:43:00,51.5,22.0,30.19,NW,310,0.0,2.0,31,0.00,,,0.00,weatherlink.com 1.10,2014-01-26 11:43:00,
2014-01-26 03:58:00,50.7,22.0,30.19,WNW,289,0.0,3.0,32,0.00,,,0.00,weatherlink.com 1.10,2014-01-26 11:58:00,
2014-01-26 04:13:00,50.8,21.0,30.18,WSW,240,0.0,2.0,31,0.00,,,0.00,weatherlink.com 1.10,2014-01-26 12:13:00,
2014-01-26 04:28:00,50.5,20.0,30.18,WSW,240,0.0,1.0,30,0.00,,,0.00,weatherlink.com 1.10,2014-01-26 12:28:00,
2014-01-26 04:43:00,51.6,18.0,30.18,WSW,256,4.0,4.0,26,0.00,,,0.00,weatherlink.com 1.10,2014-01-26 12:43:00,
2014-01-26 04:58:00,52.8,17.0,30.18,West,277,4.0,6.0,24,0.00,,,0.00,weatherlink.com 1.10,2014-01-26 12:58:00,
2014-01-26 05:13:00,52.4,18.0,30.18,ESE,114,1.0,4.0,26,0.00,,,0.00,weatherlink.com 1.10,2014-01-26 13:13:00,
2014-01-26 05:28:00,51.2,17.0,30.18,SE,135,0.0,2.0,26,0.00,,,0.00,weatherlink.com 1.10,2014-01-26 13:28:00,
2014-01-26 05:43:00,51.5,17.0,30.18,SE,132,0.0,0.0,25,0.00,,,0.00,weatherlink.com 1.10,2014-01-26 13:43:00,
2014-01-26 05:58:00,52.0,16.0,30.18,East,82,0.0,1.0,24,0.00,,,0.00,weatherlink.com 1.10,2014-01-26 13:58:00,
2014-01-26 06:13:00,52.1,16.0,30.18,SW,214,1.0,3.0,24,0.00,,,0.00,weatherlink.com 1.10,2014-01-26 14:13:00,
2014-01-26 06:29:00,52.5,16.0,30.19,SW,232,0.0,0.0,24,0.00,,,0.00,weatherlink.com 1.10,2014-01-26 14:29:00,
2014-01-26 06:44:00,52.9,17.0,30.19,SW,229,0.0,0.0,24,0.00,,,0.00,weatherlink.com 1.10,2014-01-26 14:44:00,
2014-01-26 06:59:00,53.3,17.0,30.19,East,85,0.0,2.0,24,0.00,,,0.00,weatherlink.com 1.10,2014-01-26 14:59:00,
2014-01-26 07:14:00,53.1,17.0,30.19,SE,133,1.0,4.0,24,0.00,,,0.00,weatherlink.com 1.10,2014-01-26 15:14:00,
2014-01-26 07:29:00,53.6,17.0,30.20,South,171,0.0,2.0,24,0.00,,,0.00,weatherlink.com 1.10,2014-01-26 15:29:00,
2014-01-26 07:44:00,53.7,18.0,30.20,West,264,0.0,3.0,24,0.00,,,0.00,weatherlink.com 1.10,2014-01-26 15:44:00,
2014-01-26 07:59:00,54.1,19.0,30.20,SSE,155,0.0,2.0,25,0.00,,,0.00,weatherlink.com 1.10,2014-01-26 15:59:00,
2014-01-26 08:14:00,54.0,20.0,30.20,WSW,240,0.0,0.0,26,0.00,,,0.00,weatherlink.com 1.10,2014-01-26 16:14:00,
2014-01-26 08:29:00,55.1,21.0,30.20,SW,229,5.0,5.0,27,0.00,,,0.00,weatherlink.com 1.10,2014-01-26 16:29:00,
2014-01-26 08:44:00,55.1,23.0,30.20,West,270,4.0,10.0,29,0.00,,,0.00,weatherlink.com 1.10,2014-01-26 16:44:00,
2014-01-26 08:59:00,55.5,24.0,30.20,WSW,249,7.0,12.0,30,0.00,,,0.00,weatherlink.com 1.10,2014-01-26 16:59:00,
2014-01-26 09:14:00,55.7,25.0,30.20,West,280,4.0,10.0,31,0.00,,,0.00,weatherlink.com 1.10,2014-01-26 17:14:00,
2014-01-26 09:29:00,56.2,26.0,30.20,West,278,7.0,11.0,31,0.00,,,0.00,weatherlink.com 1.10,2014-01-26 17:29:00,
2014-01-26 09:44:00,57.1,26.0,30.20,NNW,335,2.0,10.0,30,0.00,,,0.00,weatherlink.com 1.10,2014-01-26 17:44:00,
2014-01-26 09:59:00,59.6,25.0,30.20,NE,51,3.0,4.0,27,0.00,,,0.00,weatherlink.com 1.10,2014-01-26 17:59:00,
2014-01-26 10:14:00,60.0,26.0,30.20,ENE,63,0.0,3.0,27,0.00,,,0.00,weatherlink.com 1.10,2014-01-26 18:14:00,
2014-01-26 10:29:00,60.8,25.0,30.20,WSW,243,3.0,5.0,26,0.00,,,0.00,weatherlink.com 1.10,2014-01-26 18:29:00,
2014-01-26 10:44:00,62.1,27.0,30.19,NNE,33,1.0,4.0,26,0.00,,,0.00,weatherlink.com 1.10,2014-01-26 18:44:00,
2014-01-26 10:59:00,61.2,27.0,30.19,WSW,256,5.0,9.0,27,0.00,,,0.00,weatherlink.com 1.10,2014-01-26 18:59:00,
2014-01-26 11:14:00,60.9,27.0,30.18,WSW,253,7.0,11.0,27,0.00,,,0.00,weatherlink.com 1.10,2014-01-26 19:14:00,
2014-01-26 11:29:00,61.2,28.0,30.17,SW,229,1.0,9.0,28,0.00,,,0.00,weatherlink.com 1.10,2014-01-26 19:29:00,
2014-01-26 11:44:00,62.6,27.0,30.16,West,271,7.0,11.0,26,0.00,,,0.00,weatherlink.com 1.10,2014-01-26 19:44:00,
2014-01-26 11:59:00,61.8,26.0,30.15,WSW,245,6.0,16.0,26,0.00,,,0.00,weatherlink.com 1.10,2014-01-26 19:59:00,
2014-01-26 12:14:00,61.1,28.0,30.14,West,267,8.0,15.0,28,0.00,,,0.00,weatherlink.com 1.10,2014-01-26 20:14:00,
2014-01-26 12:29:00,60.5,27.0,30.13,West,276,4.0,14.0,28,0.00,,,0.00,weatherlink.com 1.10,2014-01-26 20:29:00,
2014-01-26 12:44:00,61.7,28.0,30.12,West,281,8.0,11.0,28,0.00,,,0.00,weatherlink.com 1.10,2014-01-26 20:44:00,
2014-01-26 12:59:00,62.2,29.0,30.12,WNW,285,7.0,19.0,28,0.00,,,0.00,weatherlink.com 1.10,2014-01-26 20:59:00,
2014-01-26 13:14:00,60.9,28.0,30.11,West,264,5.0,16.0,29,0.00,,,0.00,weatherlink.com 1.10,2014-01-26 21:14:00,
2014-01-26 13:29:00,60.9,29.0,30.10,West,260,7.0,12.0,30,0.00,,,0.00,weatherlink.com 1.10,2014-01-26 21:29:00,
2014-01-26 13:44:00,59.9,29.0,30.10,West,273,5.0,9.0,31,0.00,,,0.00,weatherlink.com 1.10,2014-01-26 21:44:00,
2014-01-26 13:59:00,60.5,29.0,30.09,West,269,3.0,8.0,30,0.00,,,0.00,weatherlink.com 1.10,2014-01-26 21:59:00,
2014-01-26 14:15:00,60.4,29.0,30.09,West,278,5.0,13.0,31,0.00,,,0.00,weatherlink.com 1.10,2014-01-26 22:15:00,
2014-01-26 14:30:00,59.0,29.0,30.09,West,266,8.0,13.0,32,0.00,,,0.00,weatherlink.com 1.10,2014-01-26 22:30:00,
2014-01-26 14:45:00,58.2,29.0,30.09,West,276,5.0,14.0,33,0.00,,,0.00,weatherlink.com 1.10,2014-01-26 22:45:00,
2014-01-26 15:00:00,57.9,31.0,30.08,West,277,7.0,13.0,36,0.00,,,0.00,weatherlink.com 1.10,2014-01-26 23:00:00,
2014-01-26 15:15:00,57.9,30.0,30.08,WNW,295,12.0,16.0,35,0.00,,,0.00,weatherlink.com 1.10,2014-01-26 23:15:00,
2014-01-26 15:30:00,57.6,31.0,30.08,NW,315,6.0,17.0,36,0.00,,,0.00,weatherlink.com 1.10,2014-01-26 23:30:00,
2014-01-26 15:45:00,56.8,31.0,30.08,WSW,257,15.0,15.0,38,0.00,,,0.00,weatherlink.com 1.10,2014-01-26 23:45:00,
2014-01-26 16:00:00,56.3,31.0,30.08,West,280,11.0,13.0,39,0.00,,,0.00,weatherlink.com 1.10,2014-01-27 00:00:00,
2014-01-26 16:15:00,55.3,34.0,30.09,West,278,9.0,15.0,44,0.00,,,0.00,weatherlink.com 1.10,2014-01-27 00:15:00,
2014-01-26 16:31:00,55.0,32.0,30.09,WNW,286,8.0,16.0,42,0.00,,,0.00,weatherlink.com 1.10,2014-01-27 00:31:00,
2014-01-26 16:45:00,54.6,32.0,30.09,WSW,255,10.0,14.0,42,0.00,,,0.00,weatherlink.com 1.10,2014-01-27 00:45:00,
2014-01-26 17:00:00,54.3,32.0,30.09,WSW,255,9.0,13.0,43,0.00,,,0.00,weatherlink.com 1.10,2014-01-27 01:00:00,
2014-01-26 17:15:00,54.1,32.0,30.09,West,268,11.0,13.0,44,0.00,,,0.00,weatherlink.com 1.10,2014-01-27 01:15:00,
2014-01-26 17:30:00,54.5,33.0,30.09,West,267,7.0,14.0,45,0.00,,,0.00,weatherlink.com 1.10,2014-01-27 01:30:00,
2014-01-26 17:45:00,54.9,33.0,30.09,West,262,8.0,13.0,44,0.00,,,0.00,weatherlink.com 1.10,2014-01-27 01:45:00,
2014-01-26 18:00:00,54.9,30.0,30.09,WSW,253,11.0,14.0,39,0.00,,,0.00,weatherlink.com 1.10,2014-01-27 02:00:00,
2014-01-26 18:15:00,55.1,30.0,30.08,WSW,252,10.0,12.0,39,0.00,,,0.00,weatherlink.com 1.10,2014-01-27 02:15:00,
2014-01-26 18:30:00,54.5,32.0,30.08,West,261,9.0,13.0,43,0.00,,,0.00,weatherlink.com 1.10,2014-01-27 02:30:00,
2014-01-26 18:45:00,54.0,32.0,30.08,WSW,255,7.0,13.0,43,0.00,,,0.00,weatherlink.com 1.10,2014-01-27 02:45:00,
2014-01-26 19:00:00,53.4,33.0,30.08,SW,233,10.0,14.0,46,0.00,,,0.00,weatherlink.com 1.10,2014-01-27 03:00:00,
2014-01-26 19:15:00,53.0,33.0,30.08,West,268,4.0,13.0,47,0.00,,,0.00,weatherlink.com 1.10,2014-01-27 03:15:00,
2014-01-26 19:30:00,53.2,33.0,30.08,WNW,294,5.0,13.0,47,0.00,,,0.00,weatherlink.com 1.10,2014-01-27 03:30:00,
2014-01-26 19:45:00,53.4,34.0,30.08,West,274,8.0,14.0,48,0.00,,,0.00,weatherlink.com 1.10,2014-01-27 03:45:00,
2014-01-26 20:00:00,53.3,34.0,30.09,WSW,242,15.0,16.0,48,0.00,,,0.00,weatherlink.com 1.10,2014-01-27 04:00:00,
2014-01-26 20:15:00,52.9,34.0,30.09,West,267,13.0,17.0,49,0.00,,,0.00,weatherlink.com 1.10,2014-01-27 04:15:00,
2014-01-26 20:30:00,51.9,35.0,30.10,WSW,256,9.0,17.0,52,0.00,,,0.00,weatherlink.com 1.10,2014-01-27 04:30:00,
2014-01-26 20:45:00,52.2,34.0,30.09,WSW,249,12.0,14.0,51,0.00,,,0.00,weatherlink.com 1.10,2014-01-27 04:45:00,
2014-01-26 21:01:00,52.4,32.0,30.10,WSW,251,8.0,14.0,46,0.00,,,0.00,weatherlink.com 1.10,2014-01-27 05:01:00,
2014-01-26 21:15:00,52.8,31.0,30.10,West,263,10.0,14.0,43,0.00,,,0.00,weatherlink.com 1.10,2014-01-27 05:15:00,
2014-01-26 21:30:00,53.3,29.0,30.10,WSW,248,8.0,11.0,39,0.00,,,0.00,weatherlink.com 1.10,2014-01-27 05:30:00,
2014-01-26 21:45:00,53.5,29.0,30.10,West,279,5.0,11.0,39,0.00,,,0.00,weatherlink.com 1.10,2014-01-27 05:45:00,
2014-01-26 22:00:00,53.7,28.0,30.10,WSW,245,6.0,12.0,38,0.00,,,0.00,weatherlink.com 1.10,2014-01-27 06:00:00,
2014-01-26 22:15:00,53.4,28.0,30.11,West,279,8.0,13.0,38,0.00,,,0.00,weatherlink.com 1.10,2014-01-27 06:15:00,
2014-01-26 22:30:00,53.3,28.0,30.12,WSW,257,6.0,13.0,38,0.00,,,0.00,weatherlink.com 1.10,2014-01-27 06:30:00,
2014-01-26 22:45:00,53.5,28.0,30.12,West,276,12.0,17.0,37,0.00,,,0.00,weatherlink.com 1.10,2014-01-27 06:45:00,
2014-01-26 23:00:00,54.1,25.0,30.11,West,277,11.0,15.0,33,0.00,,,0.00,weatherlink.com 1.10,2014-01-27 07:00:00,
2014-01-26 23:15:00,54.0,26.0,30.11,NW,309,5.0,14.0,34,0.00,,,0.00,weatherlink.com 1.10,2014-01-27 07:15:00,
2014-01-26 23:30:00,53.7,26.0,30.11,WSW,249,15.0,17.0,35,0.00,,,0.00,weatherlink.com 1.10,2014-01-27 07:30:00,
2014-01-26 23:45:00,53.5,27.0,30.11,WNW,289,9.0,15.0,36,0.00,,,0.00,weatherlink.com 1.10,2014-01-27 07:45:00,